Hourly Data Report for October 30, 2015

All times are specified in Local Standard Time (LST). Add 1 hour to adjust for Daylight Saving Time where and when it is observed.

RANKIN INLET A
NUNAVUT

62°48'38.000" N
92°06'53.000" W
32.30 m
2303405
71083
YRT

Download Data

Hourly Data (October 2015)
Hourly Data Report for October 30, 2015
Temp Definition
°C
Dew Point Temp Definition
°C
Rel Hum Definition
%
Wind Dir Definition
10's deg

Wind Spd Definition
km/h
Visibility Definition
km
Stn Press Definition
kPa
Hmdx Definition


Wind Chill Definition


Weather Definition


TIME
00:00 Legend Double Dagger -19.6 -22.1 81 35 18 24.1 100.56   -29 Mainly Clear
01:00 Legend Double Dagger -20.4 -23.0 80 36 16 24.1 100.56   -30 LegendNANA
02:00 Legend Double Dagger -20.4 -23.0 80 35 20 24.1 100.58   -31 LegendNANA
03:00 Legend Double Dagger -20.5 -23.1 80 1 17 24.1 100.56   -30 Mainly Clear
04:00 Legend Double Dagger -21.1 -23.7 80 35 11 24.1 100.56   -29 LegendNANA
05:00 Legend Double Dagger -20.8 -23.4 80 36 12 24.1 100.56   -29 LegendNANA
06:00 Legend Double Dagger -20.5 -23.0 81 36 10 24.1 100.57   -28 Clear
07:00 Legend Double Dagger -19.4 -21.6 83 35 8 3.2 100.58   -26 Fog
08:00 Legend Double Dagger -17.7 -19.9 83 2 8 0.4 100.58   -24 Freezing Fog
09:00 Legend Double Dagger -15.2 -17.3 84 36 8 12.9 100.56   -21 Snow
10:00 Legend Double Dagger -12.1 -14.0 86 3 9 12.9 100.57   -17 Snow
11:00 Legend Double Dagger -11.4 -13.2 87 35 12 12.9 100.57   -18 Snow
12:00 Legend Double Dagger -11.2 -13.0 87 1 12 16.1 100.58   -17 Snow
13:00 Legend Double Dagger -10.3 -11.9 88 36 11 16.1 100.56   -16 Snow
14:00 Legend Double Dagger -9.2 -10.7 89 35 12 16.1 100.56   -15 Snow
15:00 Legend Double Dagger -8.5 -10.0 89 2 8 12.9 100.58   -13 Snow
16:00 Legend Double Dagger -8.0 -9.5 89 5 17 3.2 100.56   -15 Snow
17:00 Legend Double Dagger -8.1 -9.8 88 6 13 4.8 100.57   -14 Snow
18:00 Legend Double Dagger -7.0 -8.5 89 6 12 16.1 100.59   -12 Snow
19:00 Legend Double Dagger -6.9 -8.9 86 6 10 16.1 100.61   -12 Snow
20:00 Legend Double Dagger -5.2 -9.0 75 16 21 16.1 100.60   -12 Snow
21:00 Legend Double Dagger -4.6 -8.9 72 12 19 16.1 100.58   -11 Snow
22:00 Legend Double Dagger -4.2 -8.5 72 13 20 16.1 100.57   -11 Snow
23:00 Legend Double Dagger -4.4 -8.5 73 13 22 16.1 100.59   -11 Snow

Notes on Data Quality.

Legend

  • E = Estimated
  • M = Missing
  • NA = Not Available
  • ‡ = Partner data that is not subject to review by the National Climate Archives
Date modified: